Location: Eschertshofen
(49.3064°N, 11.5756°E)
Time: 13:17:18
(UTC+00:00)

H-2A R/B - Pass Details

Date: 18 September 2020
Orbit: 734 x 836 km, 98.2° (Epoch: 25 October)

Event Time Altitude Azimuth Distance (km) Brightness Sun altitude
Rises 19:14:12 0° 197° (SSW) 3,161 5.1 -18.8°
Reaches altitude 10° 19:16:47 10° 210° (SSW) 2,252 4.5 -19.2°
Maximum altitude 19:20:57 27° 267° (W) 1,426 4.0 -19.8°
Drops below altitude 10° 19:25:14 10° 325° (NW) 2,309 5.4 -20.4°
Sets 19:27:55 0° 337° (NNW) 3,258 6.1 -20.8°
